Hourly Weather Roundup
Issued by NWS Central Illinois

Home | Current Version | Previous Version | Text Only | Print | Product List | Glossary On
Versions: 1 2 3 4 5 6 7 8 9 10 11 12 13 14 15 16 17 18 19 20 21 22 23 24 25 26 27 28 29 30 31 32 33 34 35 36 37 38 39 40 41 42 43 44 45 46 47 48 49 50
953
NZUS43 KILX 251010
HWRILX

Area Weather Roundup
National Weather Service Lincoln IL
500 AM CDT MON SEP 25 2017

NOTE:  "FAIR" indicates few or no clouds below 12,000 feet, with
       no sigificant weather and/or obstructions to visibility.


CITY           SKY/WX    TMP DP  RH WIND       PRES   REMARKS
Bloomington    CLEAR     68  61  78 SE5       30.02S
Champaign      CLEAR     65  58  78 E5        30.02R
Danville       PTCLDY    60  57  92 CALM      30.00R
Decatur        CLEAR     63  59  87 CALM      30.01R
Effingham      CLEAR     62  62  98 CALM      30.02R
Flora          CLEAR     64  62  93 CALM      30.01R
Galesburg      CLEAR     66  59  80 CALM      29.98S
Jacksonville   CLEAR     69  62  80 S5        29.97F
Lacon          CLEAR     66  59  78 SE5       29.98R
Lawrenceville  CLEAR     66  63  90 E3        30.01S
Litchfield     CLEAR     64  63  94 CALM      30.00S FOG
$$


CITY           SKY/WX    TMP DP  RH WIND       PRES   REMARKS
Lincoln        CLEAR     65  61  85 CALM      29.99S
Macomb         PTCLDY    61  59  94 CALM      29.99F
Mattoon        CLEAR     64  61  90 S5        30.00S
Mt Carmel AP   CLEAR     64  62  94 CALM      30.01R
Olney-Noble AP CLEAR     64  62  93 CALM      30.01S
Paris AP       CLEAR     60  59  96 CALM      30.02S
Peoria         CLEAR     68  60  75 SE3       29.98S
Pontiac        PTCLDY    63  62  98 CALM      30.01S
Rantoul        CLEAR     67  60  78 SE3       30.01S
Robinson       CLEAR     60  60  99 CALM      30.02S
Springfield    CLEAR     68  63  84 SE3       29.99S
Taylorville    CLEAR     65  60  83 CALM      30.00S HAZE
$$

...REGIONAL REPORTS...


CITY           SKY/WX    TMP DP  RH WIND       PRES   REMARKS
Chicago O`Hare PTCLDY    69  57  65 CALM      29.99S
Kankakee       CLEAR     63  58  85 CALM      30.02S
Moline         CLEAR     68  59  73 CALM      29.96S
Mount Sterling CLEAR     64  62  94 CALM      29.98R
Mount Vernon     N/A     61  61 100 CALM      30.01R FOG
Pittsfield     CLEAR     67  64  89 CALM      29.99S
Quincy         CLEAR     70  63  78 S6        29.97S
Rockford       CLEAR     67  59  75 CALM      30.00R
$$


CITY           SKY/WX    TMP DP  RH WIND       PRES   REMARKS
Burlington     PTCLDY    68  64  87 CALM      29.95S
Cedar Rapids   CLEAR     65  62  90 SE5       29.94S
Des Moines     PTCLDY    69  64  84 CALM      29.92R
Kirksville     CLEAR     64  61  90 S5        29.97S
Ottumwa        CLEAR     69  63  81 S3        29.94S
St Louis       CLEAR     70  66  87 SE5       29.99R
$$


CITY           SKY/WX    TMP DP  RH WIND       PRES   REMARKS
Terre Haute    CLEAR     61  57  87 CALM      30.02R
Evansville     CLEAR     68  66  93 CALM      30.00F
Indianapolis   PTCLDY    67  57  70 CALM      30.03S
Lafayette      CLEAR     61  58  90 CALM      30.02S
Madison        CLEAR     63  61  93 CALM      29.98S
Milwaukee      PTCLDY    68  63  84 S3        29.99S
$$






USA.gov is the U.S. government's official web portal to all federal, state and local government web resources and services.